map of CAB home
Great Circle Mapper logo
CAB - Airport
Location
City:  Cabinda, Angola
ICAO / IATA:FNCA / CAB

Details
Type:Airport (Aerodrome, Airfield)
Use:Public/Civil
Latitude:535'49"S (-5.596991)
Longitude:1211'18"E (12.188353)
Datum:WGS 1984
Elevation:66 ft (20 m)
Runways:1
Longest:8202 × 98 ft (2500 × 30 m), paved

Time
Time Zone:UTC+1
Local Time:

Weather
METAR:FNCA 021600Z 24006KT 9999 BKN025 25/19 Q1013
TAF:FNCA 021101Z 0212/0224 26010KT 9999 SCT015 OVC023
TEMPO 0214/0218 FEW015 BKN025
BECMG 0218/0220 20005KT 9999 BKN020

Related Locations
Nearby:
Farthest:PLPA: 12055 mi / 19400 km
Palmyra Island Atoll [Palmyra Airport (Cooper)], UM

Find:

   beyond  
but within

Other Information
Maps:
NOTAMs:
Links:
Sources:

  
flag of Angola   

Sectional Chart

Flight Planning
at skyvector.com

Satellite Image

Google Maps Satellite View

 

Copyright © 2004-2014 Karl L. Swartz. All rights reserved.
The Great Circle Mapper name and logo are trademarks of the Great Circle Mapper.
All other trademarks mentioned herein belong to their respective owners.
Please see credits for attibutions and further copyright information.

  Follow gcmap on Facebook Follow gcmap on Twitter

hCard Microformat

Geo Microformat